Defiance, OH

9:29 PM EST on December 07, 2016 (GMT -0500)
Defiance Memorial

Weather History for KDFI - December, 2013

Change the Weather History Date:

Wednesday, December 4, 2013

  Actual Average Record
Temperature  
Mean Temperature 50 °F -  
Max Temperature 60 °F 40 °F 67 °F (1982)
Min Temperature 41 °F 23 °F -2 °F (1976)
Degree Days  
Heating Degree Days 14    
Moisture  
Dew Point 46 °F    
Average Humidity 85    
Maximum Humidity 93    
Minimum Humidity 77    
Precipitation  
Precipitation 0.00 in - - ()
Sea Level Pressure  
Sea Level Pressure 29.79 in    
Wind  
Wind Speed 4 mph (SSE)    
Max Wind Speed 15 mph    
Max Gust Speed 21 mph    
Visibility 5 miles    
Events      
Averages and records for this station are not official NWS values.
T = Trace of Precipitation, MM = Missing Value Source: NWS Daily Summary

Daily Weather History Graph

Daily Weather History Graph

Search for Another Location

Airport or City:

Trip Planner

Search our weather history database for the weather conditions in past years. The results will help you decide how hot, cold, wet, or windy it might be!

Date:

Astronomy

Dec. 04, 2013 Rise Set
Actual Time 7:47 AM EST 5:08 PM EST
Civil Twilight 7:16 AM EST 5:39 PM EST
Nautical Twilight 6:42 AM EST 6:13 PM EST
Astronomical Twilight 6:08 AM EST 6:47 PM EST
Moon 9:14 AM EST (12/4) 7:18 PM EST (12/4)
Length of Visible Light 10h 22m
Length of Day
9h 21m
Waxing Crescent, 4% of the Moon is Illuminated
Dec 4
Waxing Crescent
Dec 9
First Quarter
Dec 17
Full
Dec 25
Last Quarter
Jan 1
New

Hourly Weather History & Observations

Time (EST) Temp. Windchill Dew Point Humidity Pressure Visibility Wind Dir Wind Speed Gust Speed Precip Events Conditions
12:53 AM 41.0 °F 39.0 °F 39.0 °F 93% 29.84 in 1.8 mi East 3.5 mph - N/A   Overcast
1:53 AM 42.1 °F - 39.9 °F 92% 29.83 in 1.8 mi Calm Calm - N/A   Overcast
2:12 AM 42.8 °F 40.1 °F 39.2 °F 87% 29.81 in 2.0 mi East 4.6 mph - N/A   Overcast
2:53 AM 42.1 °F - 39.9 °F 92% 29.84 in 2.0 mi Calm Calm - N/A   Overcast
3:23 AM 42.8 °F - 39.2 °F 87% 29.84 in 2.5 mi Calm Calm - N/A   Overcast
3:53 AM 42.1 °F - 39.0 °F 89% 29.86 in 2.0 mi Calm Calm - N/A   Overcast
4:33 AM 42.8 °F - 39.2 °F 87% 29.84 in 2.5 mi Calm Calm - N/A   Overcast
4:53 AM 42.1 °F - 39.9 °F 92% 29.84 in 2.5 mi Calm Calm - N/A   Overcast
5:31 AM 42.8 °F 41.1 °F 39.2 °F 87% 29.84 in 3.0 mi SE 3.5 mph - N/A   Overcast
5:53 AM 44.1 °F - 42.1 °F 93% 29.86 in 3.0 mi Calm Calm - N/A   Overcast
6:53 AM 45.0 °F - 42.1 °F 90% 29.86 in 4.0 mi Calm Calm - N/A   Overcast
7:17 AM 46.4 °F - 42.8 °F 87% 29.85 in 5.0 mi Calm Calm - N/A   Overcast
7:24 AM 46.4 °F - 42.8 °F 87% 29.85 in 4.0 mi Calm Calm - N/A   Overcast
7:53 AM 46.9 °F - 43.0 °F 86% 29.87 in 5.0 mi SSE 3.5 mph - N/A   Overcast
8:53 AM 48.0 °F - 44.1 °F 86% 29.88 in 4.0 mi SSE 3.5 mph - N/A   Overcast
9:01 AM 48.2 °F - 44.6 °F 87% 29.87 in 4.0 mi Calm Calm - N/A   Overcast
9:53 AM 50.0 °F - 45.0 °F 83% 29.87 in 4.0 mi SSE 4.6 mph - N/A   Haze
10:48 AM 51.8 °F - 46.4 °F 82% 29.85 in 5.0 mi SSE 6.9 mph - N/A   Haze
10:53 AM 51.1 °F - 46.0 °F 83% 29.85 in 5.0 mi SSE 5.8 mph - N/A   Haze
11:53 AM 53.1 °F - 48.0 °F 83% 29.82 in 4.0 mi SSE 6.9 mph - N/A   Haze
12:53 PM 54.0 °F - 48.9 °F 83% 29.78 in 5.0 mi South 8.1 mph - N/A   Haze
1:28 PM 55.4 °F - 50.0 °F 82% 29.75 in 5.0 mi SSE 6.9 mph - N/A   Haze
1:53 PM 55.9 °F - 50.0 °F 80% 29.75 in 5.0 mi SE 5.8 mph - N/A   Haze
2:51 PM 57.2 °F - 50.0 °F 77% 29.72 in 5.0 mi SE 4.6 mph - N/A   Haze
2:53 PM 57.0 °F - 51.1 °F 81% 29.73 in 5.0 mi SE 4.6 mph - N/A   Haze
3:53 PM 57.0 °F - 51.1 °F 81% 29.70 in 7.0 mi SE 6.9 mph - N/A   Overcast
4:53 PM 57.9 °F - 52.0 °F 81% 29.70 in 7.0 mi SSE 8.1 mph - 0.00 in   Overcast
5:53 PM 57.9 °F - 53.1 °F 84% 29.70 in 8.0 mi South 11.5 mph - N/A   Overcast
6:53 PM 57.9 °F - 53.1 °F 84% 29.70 in 8.0 mi South 9.2 mph - N/A   Overcast
7:12 PM 57.2 °F - 53.6 °F 88% 29.69 in 8.0 mi SSE 9.2 mph - N/A   Overcast
7:53 PM 57.9 °F - 53.1 °F 84% 29.69 in 8.0 mi South 10.4 mph - N/A   Overcast
8:53 PM 59.0 °F - 53.1 °F 81% 29.68 in 10.0 mi South 10.4 mph 18.4 mph N/A   Overcast
9:53 PM 60.1 °F - 54.0 °F 80% 29.66 in 10.0 mi South 10.4 mph 18.4 mph N/A   Overcast
10:53 PM 60.1 °F - 54.0 °F 80% 29.65 in 10.0 mi SSW 13.8 mph - N/A   Overcast
11:53 PM 59.0 °F - 53.1 °F 81% 29.66 in 10.0 mi SSW 15.0 mph 20.7 mph N/A   Overcast